TimeCST,TemperatureF,Dew PointF,Humidity,Sea Level PressureIn,VisibilityMPH,Wind Direction,Wind SpeedMPH,Gust SpeedMPH,PrecipitationIn,Events,Conditions,WindDirDegrees,DateUTC
12:53 AM,42.1,37.0,82,30.18,10.0,Calm,Calm,-,N/A,,Clear,0,2012-11-04 05:53:00
1:53 AM,39.9,36.0,86,30.18,10.0,Calm,Calm,-,N/A,,Clear,0,2012-11-04 06:53:00
1:53 AM,39.9,36.0,86,30.18,10.0,Calm,Calm,-,N/A,,Clear,0,2012-11-04 07:53:00
2:53 AM,41.0,37.0,86,30.18,4.0,Calm,Calm,-,N/A,,Clear,0,2012-11-04 08:53:00
3:07 AM,39.2,35.6,87,30.19,2.5,Calm,Calm,-,N/A,,Clear,0,2012-11-04 09:07:00
3:14 AM,39.2,35.6,87,30.19,1.5,Calm,Calm,-,N/A,,Clear,0,2012-11-04 09:14:00
3:26 AM,39.2,35.6,87,30.19,8.0,Calm,Calm,-,N/A,,Clear,0,2012-11-04 09:26:00
3:53 AM,37.0,36.0,96,30.19,7.0,Calm,Calm,-,N/A,,Clear,0,2012-11-04 09:53:00
4:53 AM,37.9,36.0,93,30.20,7.0,Calm,Calm,-,N/A,,Clear,0,2012-11-04 10:53:00
5:53 AM,35.1,34.0,96,30.21,5.0,Calm,Calm,-,N/A,,Clear,0,2012-11-04 11:53:00
6:51 AM,35.6,35.6,100,30.20,2.5,Calm,Calm,-,N/A,,Clear,0,2012-11-04 12:51:00
6:53 AM,36.0,35.1,97,30.21,3.0,Calm,Calm,-,N/A,,Clear,0,2012-11-04 12:53:00
7:10 AM,33.8,33.8,100,30.20,2.5,Calm,Calm,-,N/A,,Clear,0,2012-11-04 13:10:00
7:25 AM,37.4,35.6,93,30.20,3.0,Calm,Calm,-,N/A,,Clear,0,2012-11-04 13:25:00
7:53 AM,42.1,39.0,89,30.22,6.0,Calm,Calm,-,N/A,,Clear,0,2012-11-04 13:53:00
8:35 AM,44.6,37.4,76,30.22,9.0,Calm,Calm,-,N/A,,Partly Cloudy,0,2012-11-04 14:35:00
8:53 AM,45.0,37.9,76,30.23,9.0,Calm,Calm,-,N/A,,Clear,0,2012-11-04 14:53:00
9:53 AM,48.0,37.9,68,30.24,10.0,SE,4.6,-,N/A,,Clear,140,2012-11-04 15:53:00
10:53 AM,52.0,35.1,53,30.22,10.0,Variable,5.8,-,N/A,,Clear,0,2012-11-04 16:53:00
11:53 AM,55.9,36.0,47,30.19,10.0,SE,8.1,-,N/A,,Clear,130,2012-11-04 17:53:00
12:53 PM,59.0,33.1,38,30.16,10.0,SE,5.8,-,N/A,,Clear,140,2012-11-04 18:53:00
1:53 PM,61.0,33.1,35,30.14,10.0,Variable,3.5,-,N/A,,Clear,0,2012-11-04 19:53:00
2:53 PM,61.0,34.0,36,30.12,10.0,East,5.8,-,N/A,,Clear,100,2012-11-04 20:53:00
3:53 PM,61.0,33.1,35,30.12,10.0,ESE,3.5,-,N/A,,Clear,110,2012-11-04 21:53:00
4:53 PM,57.0,33.1,40,30.11,10.0,SE,5.8,-,N/A,,Clear,130,2012-11-04 22:53:00
5:53 PM,52.0,34.0,50,30.12,10.0,SE,4.6,-,N/A,,Clear,140,2012-11-04 23:53:00
6:53 PM,48.9,35.1,59,30.13,10.0,SE,4.6,-,N/A,,Clear,140,2012-11-05 00:53:00
7:53 PM,46.9,36.0,66,30.12,10.0,SSE,6.9,-,N/A,,Clear,150,2012-11-05 01:53:00
8:53 PM,46.0,36.0,68,30.12,10.0,SSE,4.6,-,N/A,,Clear,150,2012-11-05 02:53:00
9:53 PM,44.1,36.0,73,30.12,10.0,Calm,Calm,-,N/A,,Clear,0,2012-11-05 03:53:00
10:53 PM,45.0,37.0,74,30.10,10.0,SE,8.1,-,N/A,,Clear,130,2012-11-05 04:53:00